When you browse on this site, cookies collect data to enhance your experience and personalize the content and advertising you see.
Visit our Privacy Policy to learn more. By continuing to use the site, you agree to this use of cookies and data.
  • Em Portugal
  • Lista de países
  • Para 7 dias
  • Temperatura da água
  • Mapas de satélite
  • Mapa do tempo
  • Widgets de tempo
  • user-avatar
    Iniciar Sessão

    Previsão horária em Mauritius

    Hoje, 16 Dezembro, Domingo

    Tempo Temperatura Precipitação Vento Pressão Humidade
    00:00 +24°C° 0.1 mm 6 m/s 725 mmHg 77%
    01:00 +24°C° 0.1 mm 7 m/s 725 mmHg 78%
    02:00 +24°C° 0.2 mm 7 m/s 725 mmHg 78%
    03:00 +24°C° 0.2 mm 7 m/s 725 mmHg 79%
    04:00 +24°C° 0 mm 8 m/s 725 mmHg 78%
    05:00 +24°C° 0 mm 8 m/s 725 mmHg 77%
    06:00 +24°C° 0 mm 8 m/s 725 mmHg 76%
    07:00 +24°C° 0 mm 8 m/s 725 mmHg 75%
    08:00 +26°C° 0 mm 8 m/s 725 mmHg 73%
    09:00 +26°C° 0 mm 8 m/s 725 mmHg 72%
    10:00 +26°C° 0 mm 8 m/s 725 mmHg 70%
    11:00 +27°C° 0 mm 8 m/s 725 mmHg 68%
    12:00 +27°C° 0 mm 7 m/s 725 mmHg 66%
    13:00 +27°C° 0 mm 7 m/s 725 mmHg 64%
    14:00 +27°C° 0 mm 7 m/s 724 mmHg 65%
    15:00 +27°C° 0 mm 7 m/s 724 mmHg 65%
    16:00 +27°C° 0 mm 7 m/s 724 mmHg 65%
    17:00 +27°C° 0 mm 7 m/s 724 mmHg 67%
    18:00 +26°C° 0 mm 7 m/s 724 mmHg 69%
    19:00 +26°C° 0 mm 7 m/s 724 mmHg 71%
    20:00 +26°C° 0.1 mm 7 m/s 725 mmHg 72%
    21:00 +24°C° 0.1 mm 7 m/s 725 mmHg 73%
    22:00 +24°C° 0.1 mm 7 m/s 725 mmHg 73%
    23:00 +24°C° 0.1 mm 7 m/s 725 mmHg 74%

    Amanhã, 17 Dezembro, Segunda-feira

    Tempo Temperatura Precipitação Vento Pressão Humidade
    00:00 +24°C° 0.1 mm 7 m/s 725 mmHg 74%
    01:00 +24°C° 0.1 mm 7 m/s 725 mmHg 74%
    02:00 +24°C° 0 mm 7 m/s 725 mmHg 75%
    03:00 +24°C° 0 mm 7 m/s 725 mmHg 76%
    04:00 +24°C° 0 mm 8 m/s 724 mmHg 77%
    05:00 +24°C° 0 mm 8 m/s 725 mmHg 75%
    06:00 +24°C° 0 mm 8 m/s 725 mmHg 74%
    07:00 +24°C° 0 mm 8 m/s 725 mmHg 73%
    08:00 +26°C° 0 mm 8 m/s 725 mmHg 71%
    09:00 +26°C° 0 mm 8 m/s 725 mmHg 70%
    10:00 +27°C° 0 mm 8 m/s 725 mmHg 68%
    11:00 +27°C° 0 mm 8 m/s 725 mmHg 67%
    12:00 +27°C° 0 mm 8 m/s 725 mmHg 66%
    13:00 +27°C° 0 mm 7 m/s 725 mmHg 65%
    14:00 +27°C° 0 mm 8 m/s 725 mmHg 65%
    15:00 +27°C° 0 mm 8 m/s 724 mmHg 66%
    16:00 +27°C° 0 mm 8 m/s 724 mmHg 66%
    17:00 +26°C° 0 mm 8 m/s 724 mmHg 69%
    18:00 +26°C° 0 mm 8 m/s 724 mmHg 71%
    19:00 +26°C° 0 mm 8 m/s 724 mmHg 74%
    20:00 +24°C° 0.1 mm 8 m/s 725 mmHg 74%
    21:00 +24°C° 0.1 mm 8 m/s 725 mmHg 74%
    22:00 +24°C° 0.1 mm 8 m/s 725 mmHg 75%
    23:00 +24°C° 0.1 mm 8 m/s 725 mmHg 75%

    Depois de amanhã, 18 Dezembro, Terça-feira

    Tempo Temperatura Precipitação Vento Pressão Humidade
    00:00 +24°C° 0.1 mm 8 m/s 725 mmHg 76%
    01:00 +24°C° 0.1 mm 8 m/s 724 mmHg 76%
    02:00 +24°C° 0.2 mm 8 m/s 724 mmHg 77%
    03:00 +24°C° 0.2 mm 8 m/s 724 mmHg 77%
    04:00 +24°C° 0.2 mm 8 m/s 723 mmHg 78%
    05:00 +24°C° 0.2 mm 8 m/s 724 mmHg 77%
    06:00 +24°C° 0.2 mm 8 m/s 724 mmHg 77%
    07:00 +24°C° 0.2 mm 8 m/s 724 mmHg 76%
    08:00 +26°C° 0.2 mm 8 m/s 724 mmHg 75%
    09:00 +26°C° 0.2 mm 8 m/s 725 mmHg 73%
    10:00 +27°C° 0.2 mm 8 m/s 725 mmHg 71%
    11:00 +27°C° 0.1 mm 8 m/s 724 mmHg 71%
    12:00 +27°C° 0.1 mm 8 m/s 724 mmHg 70%
    13:00 +27°C° 0.1 mm 7 m/s 724 mmHg 69%
    14:00 +27°C° 0.3 mm 7 m/s 724 mmHg 70%
    15:00 +27°C° 0.3 mm 7 m/s 723 mmHg 71%
    16:00 +27°C° 0.3 mm 7 m/s 723 mmHg 72%
    17:00 +27°C° 0.1 mm 7 m/s 723 mmHg 74%
    18:00 +26°C° 0.1 mm 8 m/s 723 mmHg 75%
    19:00 +26°C° 0.1 mm 8 m/s 724 mmHg 77%
    20:00 +26°C° 0 mm 8 m/s 724 mmHg 78%
    21:00 +26°C° 0 mm 8 m/s 724 mmHg 79%
    22:00 +26°C° 0 mm 8 m/s 725 mmHg 79%
    23:00 +26°C° 0.2 mm 8 m/s 724 mmHg 80%

    19 Dezembro, Quarta-feira

    Tempo Temperatura Precipitação Vento Pressão Humidade
    00:00 +24°C° 0.2 mm 8 m/s 724 mmHg 80%
    01:00 +24°C° 0.2 mm 8 m/s 723 mmHg 80%
    02:00 +24°C° 0.2 mm 8 m/s 723 mmHg 80%
    03:00 +24°C° 0.2 mm 8 m/s 723 mmHg 80%
    04:00 +24°C° 0.2 mm 8 m/s 722 mmHg 80%
    05:00 +24°C° 0.1 mm 8 m/s 723 mmHg 78%
    06:00 +24°C° 0.1 mm 8 m/s 723 mmHg 77%
    07:00 +26°C° 0.1 mm 8 m/s 724 mmHg 76%
    08:00 +26°C° 0 mm 8 m/s 724 mmHg 73%
    09:00 +27°C° 0 mm 8 m/s 724 mmHg 71%
    10:00 +27°C° 0 mm 8 m/s 724 mmHg 69%
    11:00 +28°C° 0.1 mm 8 m/s 724 mmHg 69%
    12:00 +28°C° 0.1 mm 8 m/s 724 mmHg 68%
    13:00 +28°C° 0.1 mm 8 m/s 723 mmHg 68%
    14:00 +28°C° 0.1 mm 8 m/s 723 mmHg 68%
    15:00 +28°C° 0.1 mm 8 m/s 723 mmHg 69%
    16:00 +27°C° 0.1 mm 8 m/s 722 mmHg 70%
    17:00 +27°C° 0.1 mm 8 m/s 722 mmHg 72%
    18:00 +27°C° 0.1 mm 8 m/s 723 mmHg 74%
    19:00 +26°C° 0.1 mm 8 m/s 723 mmHg 76%
    20:00 +26°C° 0.1 mm 8 m/s 723 mmHg 76%
    21:00 +26°C° 0.1 mm 8 m/s 724 mmHg 76%
    22:00 +26°C° 0.1 mm 8 m/s 724 mmHg 76%
    23:00 +26°C° 0.1 mm 8 m/s 724 mmHg 77%

    20 Dezembro, Quinta-feira

    Tempo Temperatura Precipitação Vento Pressão Humidade
    00:00 +26°C° 0.1 mm 8 m/s 723 mmHg 78%
    01:00 +24°C° 0.1 mm 8 m/s 722 mmHg 80%
    02:00 +24°C° 0.1 mm 8 m/s 722 mmHg 79%
    03:00 +24°C° 0.1 mm 8 m/s 722 mmHg 79%
    04:00 +24°C° 0.1 mm 8 m/s 721 mmHg 79%
    05:00 +24°C° 0.1 mm 9 m/s 722 mmHg 77%
    06:00 +24°C° 0.1 mm 9 m/s 722 mmHg 76%
    07:00 +26°C° 0.1 mm 9 m/s 723 mmHg 74%
    08:00 +26°C° 0 mm 9 m/s 723 mmHg 72%
    09:00 +26°C° 0 mm 9 m/s 723 mmHg 70%
    10:00 +27°C° 0 mm 9 m/s 723 mmHg 67%
    11:00 +27°C° 0 mm 9 m/s 722 mmHg 67%
    12:00 +27°C° 0 mm 9 m/s 722 mmHg 66%
    13:00 +28°C° 0 mm 8 m/s 721 mmHg 65%
    14:00 +27°C° 0 mm 8 m/s 721 mmHg 66%
    15:00 +27°C° 0 mm 8 m/s 721 mmHg 67%
    16:00 +27°C° 0 mm 8 m/s 720 mmHg 68%
    17:00 +27°C° 0 mm 8 m/s 720 mmHg 70%
    18:00 +27°C° 0 mm 8 m/s 721 mmHg 72%
    19:00 +26°C° 0 mm 9 m/s 721 mmHg 74%
    20:00 +26°C° 0 mm 8 m/s 721 mmHg 74%
    21:00 +26°C° 0 mm 8 m/s 721 mmHg 74%
    22:00 +26°C° 0 mm 8 m/s 721 mmHg 74%
    23:00 +26°C° 0 mm 8 m/s 721 mmHg 75%

    21 Dezembro, Sexta-feira

    Tempo Temperatura Precipitação Vento Pressão Humidade
    00:00 +26°C° 0 mm 8 m/s 720 mmHg 76%
    01:00 +26°C° 0 mm 8 m/s 719 mmHg 76%
    02:00 +26°C° 0 mm 8 m/s 719 mmHg 77%
    03:00 +26°C° 0 mm 8 m/s 719 mmHg 78%
    04:00 +24°C° 0 mm 8 m/s 719 mmHg 78%
    05:00 +26°C° 0.1 mm 8 m/s 719 mmHg 79%
    06:00 +26°C° 0.1 mm 8 m/s 719 mmHg 79%
    07:00 +26°C° 0.1 mm 8 m/s 720 mmHg 80%
    08:00 +26°C° 0.1 mm 8 m/s 720 mmHg 78%
    09:00 +27°C° 0.1 mm 8 m/s 719 mmHg 77%
    10:00 +27°C° 0.1 mm 9 m/s 719 mmHg 75%
    11:00 +27°C° 0.5 mm 8 m/s 719 mmHg 76%
    12:00 +27°C° 0.5 mm 8 m/s 718 mmHg 77%
    13:00 +27°C° 0.5 mm 8 m/s 718 mmHg 78%
    14:00 +26°C° 1.2 mm 8 m/s 718 mmHg 80%
    15:00 +26°C° 1.2 mm 8 m/s 717 mmHg 82%
    16:00 +26°C° 1.2 mm 8 m/s 717 mmHg 84%
    17:00 +26°C° 1.2 mm 8 m/s 717 mmHg 84%
    18:00 +26°C° 1.2 mm 8 m/s 717 mmHg 85%
    19:00 +26°C° 1.2 mm 8 m/s 717 mmHg 85%
    20:00 +26°C° 1 mm 8 m/s 717 mmHg 85%
    21:00 +26°C° 1 mm 9 m/s 717 mmHg 86%
    22:00 +26°C° 1 mm 9 m/s 717 mmHg 86%
    23:00 +26°C° 1.1 mm 9 m/s 717 mmHg 87%
    Mostrar mais